ONEWEB-0300, 49089

Orbit data source: Space-Track

ONEWEB-0300, 49089 is a payload satellite owned by One Web (NAA) (UK) in LEO that was launched on Sat, 21 Aug 2021 UTC via a SOYUZ-2-1B launch vehicle from the Tyuratam Missile And Space Complex (TTMTR). Payload-class satellites include a variety of spacecraft equipped with specific instruments for various scientific and technological missions. These include communications satellites like Starlink; space stations such as the ISS; scientific satellites like the Hubble; Earth observation satellites from companies like Planet Labs, Umbra, and HawkEye 360; GPS; miniature CubeSats for education and research; and military/defense satellites.

Loading next visibility...
Identifier
49089, 2021-075Q
Orbit
LEO
Country
Flag of UKUK
Related business
Manufacturer
One Web
Mission
Operational Commercial Communications
Bus & Motor
ARROW, Unknown motor
Mass
148 kg wet, ~140 kg dry
Launch date (UTC)
2021-08-21 (5 years ago)
Launch vehicle
SOYUZ-2-1B
Launch site
Tyuratam Missile And Space Complex (TTMTR)
Object type
Payload
Rocket body
Debris
Shape & HBR
Trap Box + 2 Pan, 6.7 m
Radar Cross Section
3.464 m², Large (>1 m²)

Expand to show TLE details & history
Last TLE update: 11 hours ago

TLE from 11 hours ago
0 ONEWEB-0300
1 49089U 21075Q   26130.06197118 -.00000028  00000-0 -11401-3 0  9992
2 49089  87.8979 358.2350 0002175  85.7090 274.4287 13.12442893230208
Epoch: 2026-05-10T01:29Z
TLE epoch observation values (Epoch: 2026-05-10T01:29:14.309Z)
Latitude
-0.00005°
Longitude
108.05493°
Altitude
1,216.487 km
Speed
7.246 km/s
True Right ascension
23h 52m 56s
True Declination
0° 00' 00"
Sunlit
Object was in daylight at epoch
Visualization orbit readout
Latitude
Unknown
Longitude
Unknown
Altitude
Unknown
Speed
Unknown
Apparent Right ascension
Unknown
Apparent Declination
Unknown
Sunlit
N/A
Visualization observer readout
Local Sidereal Time
20:35:56
Azimuth
Unknown
Elevation
Unknown
Doppler factor
Unknown
Orbital elements
Apogee altitude
1,212.491 km
Perigee altitude
1,209.19 km
Semi-major axis
7,588.977 km
Eccentricity
0.00022
Inclination
87.8979°
RAAN
358.235°
Arg. of periapsis
85.709°
True anomaly
274.40385°
Mean anomaly
274.4287°
Eccentric anomaly
274.41628°
Mean motion
3.28298 °/min
Orbital period
109.66 mins
BSTAR
-0.00011401
Loading maneuver chart data...
Computing Atmospheric mass density...
Loading historical data...
Loading historical data...
Loading historical data...
Loading historical data...
Loading historical data...
Loading historical data...
Loading historical data...

Documentation

Showing up to 5 results
|